Wind_Speed
16 13 14 11 5 5 7 7 11 13 12 13 13 11 10 10 10 9 8 9 10 10 10 11 12 13 13 15 20 25 27 27 28 30 31 34 37 41 44 47 47 46 46 47 47 48 48 49 49 50 51 51 51 52 54 54 54 55 55 55 56 56 56 55 53 51 47 42 38 30 20 19 23 23 22 22 22 22 21 19 17 15 14 14 15 16 14
14 13 15 15 11 9 8 7 10 13 14 16 16 13 11 12 11 9 10 13 12 10 11 15 18 20 18 17 18 19 21 25 28 29 31 34 38 42 45 46 46 46 46 47 47 47 47 47 49 50 51 51 51 52 53 54 54 55 54 55 56 57 57 56 55 52 47 43 39 29 22 23 25 23 22 22 22 22 21 19 17 15 15 16 17 17 15
10 11 13 13 12 13 12 11 12 11 11 12 13 10 9 9 8 5 8 10 10 8 7 9 12 15 13 10 12 18 23 28 29 29 33 36 39 41 43 44 44 44 44 44 44 44 45 46 47 48 50 51 52 53 53 54 55 55 55 55 56 57 57 55 54 53 49 46 41 32 26 26 26 22 21 21 21 21 20 18 17 16 16 17 18 17 16
7 9 12 13 9 8 10 12 14 11 8 7 7 6 6 7 7 6 7 6 8 8 4 3 5 10 11 10 15 21 24 28 31 32 34 36 38 39 39 40 41 40 40 40 40 41 42 44 45 46 48 50 51 52 53 53 53 53 53 55 56 56 54 54 55 55 50 46 40 30 23 24 24 21 20 20 20 21 20 18 18 17 18 18 18 17 15
7 7 10 10 6 4 6 9 10 9 7 7 5 2 1 4 6 7 6 7 7 4 5 5 5 8 9 12 19 25 27 30 33 34 35 35 35 36 36 36 36 35 34 33 33 34 35 38 40 42 44 47 49 51 50 49 50 52 54 55 54 51 50 49 48 47 44 40 36 27 20 22 24 22 20 21 21 21 20 18 19 19 19 19 18 16 15
6 6 8 8 5 6 7 6 5 6 7 10 10 4 1 1 4 6 5 6 3 5 8 9 9 11 14 19 27 30 31 32 30 30 33 33 33 33 32 30 27 25 24 23 23 23 25 28 32 36 40 43 46 46 46 46 49 52 52 50 48 45 44 43 42 42 42 40 37 31 25 27 29 26 23 22 21 21 20 20 21 21 20 20 18 16 15
4 4 8 8 6 7 5 5 2 5 11 15 13 7 4 4 3 2 1 4 4 5 9 12 14 14 15 17 19 20 24 30 31 29 29 29 28 26 22 19 15 13 12 12 12 12 11 14 22 29 34 38 42 43 44 47 49 50 47 44 42 41 42 43 44 46 45 43 41 35 28 29 32 31 27 24 22 21 22 22 23 22 21 20 18 17 17
3 4 5 7 6 3 3 5 4 4 7 11 12 8 8 8 7 3 3 3 5 4 3 9 16 16 13 11 9 13 19 24 25 26 25 24 21 18 15 13 11 9 9 10 9 6 2 3 9 15 20 30 37 41 43 46 47 46 43 42 41 42 43 45 47 46 44 44 44 37 29 30 34 34 30 27 23 23 23 23 23 22 20 19 19 19 19
4 5 2 3 3 2 3 3 2 2 2 2 7 6 3 4 5 3 2 4 4 4 2 9 21 23 16 11 8 9 15 18 19 20 20 20 19 17 15 12 10 8 10 11 9 7 4 4 6 8 13 22 29 34 39 44 45 43 41 41 41 42 45 47 46 43 43 44 41 33 29 31 33 33 32 30 28 26 26 25 24 23 21 20 20 20 20
2 5 4 2 3 1 3 5 4 3 7 6 3 6 1 3 8 7 2 7 8 7 5 6 17 20 14 7 6 5 8 15 17 17 18 19 17 16 14 12 11 11 11 9 8 7 5 5 7 9 13 18 23 29 35 41 43 41 39 39 41 44 46 45 42 42 44 44 39 30 27 30 32 32 31 32 33 31 28 26 25 23 22 22 22 24 26
2 5 5 3 2 2 4 7 9 10 13 10 1 5 2 6 12 11 7 6 6 8 9 8 9 11 8 2 4 7 5 11 15 17 18 16 15 14 12 9 9 9 8 7 7 5 3 5 6 7 9 13 18 23 28 35 40 40 39 42 44 44 43 41 42 42 42 41 34 26 25 30 31 31 32 35 38 37 32 29 27 26 26 27 27 28 29
4 5 3 2 2 1 4 7 11 16 15 6 6 4 2 7 13 11 12 10 8 10 16 16 11 7 5 3 8 12 14 14 15 17 15 12 13 14 11 8 6 6 5 6 4 3 6 7 7 7 8 9 12 16 20 26 33 37 39 41 43 42 41 42 43 42 41 36 25 18 23 31 30 30 35 38 38 36 34 33 31 30 30 29 27 27 27
5 5 3 2 1 2 5 9 14 17 12 8 8 4 4 6 11 12 20 19 18 22 24 19 12 8 10 12 16 21 22 21 21 19 15 11 11 11 9 8 6 3 1 3 5 7 8 9 11 11 10 9 11 13 16 22 28 33 36 38 39 40 41 41 39 39 38 29 17 16 23 29 28 31 35 33 30 32 35 36 35 33 31 28 25 26 26
3 4 3 3 1 2 6 14 15 12 7 4 4 3 1 6 10 17 23 23 25 30 29 23 19 17 19 22 23 24 23 21 21 20 16 14 13 10 9 7 4 3 5 7 9 10 11 13 15 14 12 11 11 13 16 21 24 27 29 30 31 33 36 36 34 35 31 21 17 21 23 25 29 32 33 29 28 31 33 32 30 29 29 27 26 26 24
3 4 4 3 1 5 13 16 10 8 5 5 8 9 9 11 15 22 25 24 26 30 29 28 27 26 25 26 26 24 23 21 21 19 16 15 14 11 10 8 6 4 4 7 9 12 13 14 15 14 13 11 11 13 17 19 20 21 22 25 28 29 27 26 28 32 28 19 18 24 27 28 29 29 28 27 27 27 27 25 24 24 26 24 22 21 20
3 3 1 2 4 9 13 7 5 6 9 14 19 17 13 14 19 24 26 25 26 29 30 30 30 29 28 27 25 25 23 21 20 19 18 18 16 13 11 9 7 4 3 7 10 13 14 14 15 15 15 14 14 16 18 18 17 16 15 19 25 22 16 18 25 30 27 19 20 25 29 29 25 23 24 25 26 28 28 26 25 24 22 21 19 19 16
3 4 2 3 4 6 8 18 20 18 21 23 23 22 19 18 21 25 27 27 26 27 29 30 31 29 27 25 24 24 23 21 19 18 17 16 15 13 12 11 10 9 8 8 10 12 13 14 14 15 16 16 16 16 18 18 17 13 12 17 22 17 14 17 24 28 27 25 26 25 23 20 17 18 21 21 23 27 27 24 22 21 18 17 17 16 13
4 6 4 3 2 3 13 25 26 25 26 23 23 26 25 21 22 24 25 24 24 25 26 27 29 28 24 22 22 22 21 20 19 19 17 15 14 12 10 10 10 10 10 10 11 10 10 12 14 14 15 15 15 16 17 17 15 12 13 17 17 14 14 16 20 24 25 24 20 13 8 4 5 12 17 17 17 20 21 20 19 18 15 15 13 12 12
5 4 4 4 5 5 11 22 26 26 26 23 21 22 20 17 18 20 20 19 18 18 19 21 23 23 22 21 20 19 19 17 17 18 17 16 16 14 12 10 8 8 8 9 10 9 9 12 14 14 14 14 14 14 15 14 12 10 12 14 12 9 10 12 11 12 14 12 10 8 5 3 4 10 15 15 14 16 17 17 16 15 13 11 11 11 12
5 5 4 4 11 12 13 20 25 26 27 25 23 22 21 17 14 15 16 16 14 14 15 16 16 16 18 18 16 16 16 15 15 15 14 14 15 15 15 15 13 11 10 9 10 10 11 14 15 15 15 13 13 13 12 11 10 10 12 13 14 17 19 17 15 14 13 11 9 6 3 5 8 10 11 14 16 17 17 16 14 13 11 10 10 11 11
7 8 8 7 11 14 15 18 21 24 27 28 25 23 22 20 16 13 13 12 12 13 15 15 14 14 15 14 12 12 12 12 13 13 14 15 15 14 14 15 14 13 11 11 11 12 13 15 16 16 15 13 13 14 13 12 13 14 17 20 22 24 22 19 18 16 13 11 9 6 3 5 9 10 13 17 19 18 16 14 13 11 9 9 10 11 11
5 3 5 7 8 6 8 14 19 22 25 26 25 23 21 20 18 14 12 11 10 11 13 14 14 15 16 14 12 10 10 11 12 13 14 15 14 13 12 11 10 12 12 12 12 13 15 17 17 17 16 16 16 16 15 15 14 13 14 17 20 20 18 16 15 14 10 10 13 14 10 10 13 15 17 19 20 17 15 14 12 11 10 10 11 12 12
4 4 10 17 15 9 8 16 22 24 25 25 26 26 24 22 18 15 14 14 14 13 13 13 14 14 15 15 14 12 11 11 11 9 8 7 7 11 13 12 12 13 13 13 14 15 17 18 19 20 19 18 18 18 17 16 11 6 9 14 15 13 11 10 12 14 13 14 17 20 19 17 18 18 19 20 20 18 16 15 13 12 12 12 12 12 12
8 10 18 25 24 19 18 23 25 25 25 26 27 26 24 21 18 16 15 16 16 15 14 14 14 14 15 15 15 14 12 10 9 7 5 5 7 11 15 16 16 16 15 14 15 17 19 20 22 22 19 19 19 18 15 14 8 6 9 14 12 9 10 13 13 13 13 13 16 19 20 19 19 18 19 21 20 18 16 15 15 14 13 13 12 12 12
19 19 23 26 27 25 24 26 27 25 24 25 26 24 21 19 17 15 15 16 17 16 15 15 15 14 14 14 13 13 12 11 10 8 7 7 8 11 14 16 17 17 17 17 17 18 20 22 22 20 19 20 20 17 15 16 12 9 9 14 14 13 12 11 11 12 13 14 16 17 18 18 19 20 20 20 19 18 17 16 15 14 13 12 11 12 14
28 27 26 27 26 24 21 21 24 25 23 22 23 22 19 17 16 15 15 16 16 15 15 15 15 14 14 13 13 13 12 11 10 9 8 8 9 11 14 15 15 15 16 15 16 18 22 22 19 18 18 20 19 16 15 17 15 9 7 11 13 11 9 10 10 11 12 12 13 15 16 17 19 21 21 20 18 17 15 15 14 15 14 12 12 13 15
20 17 17 19 22 23 23 22 21 21 19 19 20 20 18 16 14 14 15 15 16 15 15 14 14 13 12 12 12 12 11 11 11 10 9 9 10 12 14 15 14 14 17 19 20 22 21 16 14 18 19 17 14 12 12 12 11 9 7 9 10 11 11 11 11 11 12 14 15 16 16 18 20 22 21 18 15 14 14 16 16 16 14 12 13 14 16
23 19 17 18 19 20 22 21 19 17 17 17 16 15 14 12 11 12 13 14 15 15 13 13 13 13 13 13 13 12 11 10 11 11 11 10 10 12 14 15 14 15 21 23 23 21 14 6 12 18 18 12 10 10 10 10 9 9 10 11 11 11 12 12 12 12 13 15 16 17 18 20 21 20 17 15 14 15 16 17 17 15 14 14 14 15 16
28 26 25 24 22 19 17 16 16 16 17 16 14 12 12 11 11 12 13 13 13 13 13 13 13 13 14 15 15 14 13 12 11 12 13 11 9 9 12 14 13 15 22 23 22 18 11 8 12 17 15 11 10 11 12 12 12 12 12 11 11 12 13 13 13 12 12 12 14 16 17 19 18 17 16 16 16 16 16 17 17 16 15 15 15 15 14
23 21 21 21 18 14 13 14 16 16 16 15 14 14 13 12 12 12 13 13 13 13 13 13 14 15 16 17 17 18 17 16 15 14 13 12 9 7 9 11 11 16 23 24 20 16 14 12 14 16 14 12 14 15 15 15 14 12 11 11 11 12 13 12 12 11 10 10 11 13 15 17 17 17 17 16 16 16 17 17 17 16 15 15 15 14 12
18 17 18 18 16 15 15 16 16 16 16 16 15 15 14 14 13 13 13 13 13 13 14 14 15 17 18 19 20 21 21 20 19 16 14 14 11 7 8 11 12 17 22 21 16 14 14 14 16 17 16 16 16 15 14 14 12 10 9 9 10 11 11 12 12 11 10 10 11 12 15 17 17 18 18 17 17 17 17 17 17 16 15 15 14 13 10
11 12 15 18 17 16 16 16 15 16 16 16 16 17 16 14 14 13 13 13 13 13 14 15 16 17 18 20 21 22 22 21 20 17 15 15 14 9 9 11 14 15 17 17 16 17 18 18 17 19 19 17 15 13 10 8 8 8 9 10 10 10 11 11 12 11 10 11 11 13 15 16 17 18 19 17 16 16 17 17 16 15 14 14 14 11 10
15 14 17 20 20 18 17 17 16 15 15 15 15 15 14 14 14 14 14 15 15 15 15 15 16 16 17 18 20 21 22 22 20 17 15 16 15 11 8 10 15 18 20 21 20 20 18 18 21 22 19 15 13 11 8 6 7 8 10 11 11 11 12 12 13 13 12 12 13 14 15 16 17 16 15 14 14 15 16 16 14 13 12 13 12 11 10
17 14 11 12 14 14 14 14 14 14 14 13 13 14 14 15 15 16 16 17 17 17 17 16 16 16 16 17 18 19 21 22 21 18 17 16 15 13 10 10 14 19 21 22 20 19 20 22 20 17 16 14 12 9 9 9 10 11 11 12 12 13 13 13 13 12 11 11 12 14 16 17 17 15 14 15 15 15 15 14 13 12 12 12 12 12 13
11 8 7 7 8 8 9 10 11 12 12 13 13 13 13 14 15 16 16 17 17 17 17 17 17 17 17 17 18 18 20 22 22 20 18 16 14 13 12 11 13 15 17 16 17 20 23 21 15 12 13 11 9 9 11 12 12 11 11 12 12 12 11 10 10 9 9 10 12 14 17 19 17 15 13 13 14 14 14 14 13 11 11 12 12 13 13
8 7 7 7 6 7 7 8 9 9 10 11 11 12 12 13 14 15 15 15 15 16 16 16 17 18 18 19 19 19 21 22 22 20 19 16 12 11 11 11 13 15 17 18 19 19 19 17 15 13 11 10 8 9 11 11 9 9 9 9 9 8 8 8 8 8 9 11 13 15 17 19 15 12 12 13 13 14 15 14 12 11 11 12 12 13 13
9 8 8 7 7 6 6 7 7 8 8 9 9 10 10 11 12 12 13 13 14 14 15 16 17 18 19 19 19 19 20 20 20 20 17 13 9 8 10 12 15 17 19 19 18 14 11 9 9 9 10 11 11 11 10 7 6 6 6 6 6 7 7 8 9 10 12 13 12 12 13 12 9 7 9 11 11 12 13 12 11 12 12 12 13 13 13
10 10 9 9 8 8 7 7 7 7 7 6 6 7 8 10 11 11 11 11 12 13 14 15 16 18 19 18 17 16 16 16 17 18 14 8 7 9 12 16 17 16 14 12 9 8 7 7 9 9 10 10 10 9 7 6 5 5 5 6 7 8 9 10 10 10 9 8 6 5 5 4 3 4 6 8 9 10 11 11 12 13 13 13 13 13 12
13 12 11 11 10 9 8 8 7 6 5 5 4 5 6 8 9 9 9 10 11 11 12 13 14 15 15 15 15 14 14 14 15 14 10 8 12 14 16 16 13 9 7 8 11 13 11 9 10 10 9 8 7 5 4 5 5 6 7 7 8 8 8 8 8 6 4 3 2 1 1 2 2 3 4 5 6 8 9 10 12 12 12 11 12 12 11
14 14 13 13 11 10 8 8 8 8 8 7 6 5 6 7 7 7 8 10 11 10 10 10 10 9 8 9 9 11 12 13 12 9 8 12 16 17 14 10 8 7 8 9 11 11 9 8 8 6 5 3 2 2 3 4 6 6 6 6 5 5 6 6 6 6 5 4 3 2 1 2 2 2 3 4 5 7 8 9 10 9 9 9 10 10 10
14 14 13 13 12 10 9 9 8 8 8 8 7 7 7 8 8 9 10 10 10 11 13 14 14 10 7 5 7 9 11 11 10 10 12 14 13 10 8 7 6 6 7 8 10 11 10 7 4 2 2 4 5 5 5 4 2 2 3 3 3 4 5 6 7 8 8 7 7 5 4 3 4 4 4 5 5 7 8 9 9 8 8 8 9 10 9
13 12 12 12 11 10 9 8 8 7 7 7 6 6 7 8 9 11 11 9 9 11 13 14 15 13 10 7 6 7 8 6 6 6 6 5 4 4 5 4 4 7 9 9 9 7 5 3 4 5 5 5 4 3 1 1 1 2 3 3 4 5 6 7 8 9 9 9 8 8 7 7 7 7 7 8 8 9 9 10 10 9 9 9 9 10 10
13 12 11 11 11 11 11 10 9 8 8 7 6 6 7 7 8 9 9 7 7 9 10 11 11 11 10 9 8 6 5 4 4 4 3 2 1 3 3 2 6 8 9 7 5 4 3 4 4 4 3 2 1 1 1 2 3 3 3 3 4 5 7 9 11 11 11 10 9 8 8 9 10 10 11 12 12 12 11 12 12 11 10 10 11 11 11
13 12 11 11 11 11 12 12 11 10 10 10 9 8 7 6 6 7 7 5 5 7 8 8 9 10 10 9 9 7 6 6 6 6 6 4 2 2 2 2 5 6 5 4 4 4 3 2 1 1 1 1 2 3 3 3 3 2 2 3 4 5 6 8 9 10 10 9 9 8 9 9 10 11 13 14 16 16 15 14 14 13 13 13 13 13 12
13 12 11 11 12 12 11 11 11 10 10 10 10 9 8 7 6 7 6 5 5 6 6 6 8 10 9 8 7 6 4 3 3 4 4 4 4 3 2 2 3 4 4 3 3 2 2 2 2 3 3 3 4 4 3 3 2 2 2 4 5 6 6 7 7 6 5 5 5 7 8 9 10 11 12 14 17 19 19 18 16 15 15 15 15 15 15
12 12 10 10 11 11 10 10 11 10 10 10 10 10 9 9 8 7 7 7 7 6 5 6 7 8 8 7 6 4 4 4 3 2 2 2 3 4 3 2 2 2 2 1 1 2 3 3 4 4 4 5 5 5 4 4 4 5 6 7 8 7 7 7 6 5 4 4 5 7 9 11 13 15 14 13 15 18 19 19 18 17 17 17 18 17 17
10 10 9 8 8 9 9 10 11 11 11 11 12 11 11 11 10 10 9 9 8 8 7 7 7 7 7 7 6 4 3 4 4 3 3 3 4 3 3 2 2 1 1 2 2 3 4 4 4 5 6 6 6 7 7 7 7 8 9 9 8 8 9 9 9 9 8 8 9 10 11 13 14 15 15 14 14 15 15 16 16 17 17 18 18 18 18
7 7 7 6 6 7 8 9 10 11 12 12 12 11 11 11 11 11 11 10 9 9 8 8 7 6 5 5 5 5 4 3 3 3 3 4 4 4 3 3 3 2 2 2 3 4 5 5 5 5 5 6 7 7 8 8 9 9 9 9 8 9 10 11 12 12 13 13 12 12 12 12 13 13 13 14 13 13 12 12 13 14 15 16 18 19 20
4 4 4 4 3 4 6 8 9 10 11 11 10 9 9 10 10 10 11 10 10 9 8 7 7 6 5 5 5 4 4 3 3 3 3 3 4 3 3 4 4 4 3 4 5 5 6 5 5 5 5 5 5 6 6 7 8 9 9 9 9 10 10 11 13 14 15 15 14 13 12 12 12 13 13 13 14 14 14 13 13 13 14 14 16 19 20
4 2 2 2 2 2 3 5 7 9 10 11 10 8 8 8 9 9 9 11 12 11 10 9 7 6 6 5 5 5 5 4 4 3 3 2 3 3 4 5 6 6 5 5 6 6 6 7 7 8 7 7 6 6 7 8 9 10 10 11 11 11 11 12 13 15 16 16 14 13 12 12 13 14 14 13 12 14 15 15 14 14 14 14 14 16 18
4 2 2 3 3 2 2 3 4 7 9 10 10 8 8 9 9 9 9 9 11 12 12 11 9 7 7 7 7 7 6 5 5 4 4 4 4 3 4 5 7 8 7 7 7 7 8 9 10 11 11 11 11 11 10 10 10 11 12 13 13 12 12 13 14 15 17 16 15 14 13 13 14 14 13 12 12 12 14 15 15 14 14 14 14 14 16
6 3 3 4 4 3 3 3 4 5 7 9 9 8 8 9 11 11 11 10 11 12 13 12 11 9 8 9 9 8 7 7 7 7 7 7 6 6 5 6 7 8 9 9 9 10 10 11 12 13 14 15 15 15 15 14 14 13 14 14 14 14 14 14 14 15 16 16 15 15 15 15 15 14 13 12 12 11 12 13 14 13 13 14 14 14 15
Wind_Direction
216 214 220 222 204 210 218 202 197 196 190 186 186 192 183 154 166 219 221 177 187 215 213 208 211 203 201 205 205 206 205 200 198 201 203 205 208 210 214 217 219 220 221 224 226 228 228 227 227 227 226 226 226 226 226 226 226 226 226 225 226 227 227 225 224 224 220 215 209 204 202 205 203 204 208 212 215 216 215 215 217 217 219 231 242 242 237
222 215 224 230 228 236 245 234 216 202 190 189 193 195 178 169 191 207 178 179 202 214 204 207 211 204 199 200 197 197 200 201 201 201 202 206 209 212 214 217 220 222 224 226 228 229 230 231 231 230 229 229 228 228 228 228 228 228 227 227 228 228 227 226 224 223 219 212 206 202 200 200 200 203 206 208 213 216 215 217 218 217 222 234 241 240 238
230 216 219 227 228 235 240 241 237 220 196 193 199 194 173 179 206 191 152 177 218 237 218 209 207 193 177 169 178 190 199 202 202 201 203 208 211 213 216 218 221 225 226 228 229 230 233 235 234 233 233 233 231 231 230 230 231 231 229 229 230 229 227 224 223 222 218 211 204 201 202 200 197 200 203 206 212 214 215 218 220 220 227 235 239 239 237
234 218 212 217 215 225 242 249 246 228 192 186 203 190 168 185 193 149 121 167 232 251 231 149 158 165 163 172 184 191 199 203 202 203 205 209 212 215 218 220 222 226 228 230 233 235 238 238 237 238 238 235 234 233 232 232 232 231 231 232 232 229 224 223 223 221 215 207 200 199 202 202 200 201 202 205 212 215 217 220 221 223 229 234 237 237 236
238 222 193 188 174 187 244 250 234 213 181 157 143 96 104 170 161 144 157 208 229 215 150 143 159 170 178 191 191 192 198 201 202 204 207 210 213 215 218 220 223 227 231 235 238 240 243 244 244 245 243 239 237 234 234 237 237 234 234 233 231 226 222 221 220 214 206 201 198 196 202 210 209 205 205 208 213 217 219 223 226 228 231 234 236 236 236
230 220 158 142 153 197 235 255 218 179 148 130 116 89 345 177 144 161 204 239 218 148 158 176 185 187 190 196 197 197 197 195 196 201 206 208 211 214 216 219 224 229 235 239 242 247 252 256 256 251 246 243 241 236 236 240 239 235 234 232 228 223 220 218 214 208 205 205 202 199 206 215 212 209 210 212 214 220 224 227 230 231 233 235 234 233 236
204 184 138 144 199 220 249 304 296 122 116 115 106 87 39 15 28 126 119 304 267 210 194 183 179 185 188 191 199 201 194 190 191 195 202 207 209 208 206 206 207 211 218 223 230 241 258 270 267 260 255 251 245 238 237 238 238 236 234 231 226 222 220 218 215 210 209 209 204 201 207 213 212 212 215 214 215 222 227 229 233 234 235 235 234 234 239
159 150 157 185 208 239 333 348 360 62 97 106 93 59 19 6 355 8 69 347 303 283 223 161 152 153 149 146 168 188 189 190 192 195 199 200 192 179 168 162 156 162 180 184 186 191 199 284 279 274 270 260 250 242 239 239 239 239 235 232 229 224 222 221 217 211 208 205 202 203 208 211 213 215 217 217 218 223 228 232 235 237 237 237 240 243 248
143 135 171 187 126 50 334 336 358 345 309 128 109 88 21 348 337 320 133 93 46 29 59 131 134 131 121 102 104 152 175 181 183 185 183 177 167 154 150 151 145 155 172 172 168 169 171 215 253 265 268 261 253 248 246 242 241 241 238 235 233 228 227 226 218 206 200 199 200 204 206 204 208 214 217 220 221 224 231 235 236 239 240 241 244 249 253
112 107 111 110 84 114 242 273 291 307 306 290 147 115 99 336 348 346 75 102 91 87 76 123 133 124 111 98 80 93 154 169 169 168 165 163 161 155 151 152 152 155 163 167 170 172 182 222 245 253 260 260 255 252 250 246 243 242 240 239 239 236 232 225 210 196 196 200 200 200 197 197 204 211 215 221 224 226 232 237 240 242 244 245 249 252 253
53 93 116 139 135 190 251 288 303 320 322 310 28 85 17 330 347 1 38 60 69 89 83 84 106 102 97 101 4 26 105 156 159 160 161 160 161 156 152 159 166 162 163 167 169 179 232 265 261 253 257 262 260 258 256 252 247 245 246 249 248 240 228 213 202 199 201 201 196 190 191 198 205 211 216 225 231 232 235 239 242 244 245 247 253 254 252
65 83 97 122 136 248 299 308 310 318 325 351 83 103 262 319 343 19 63 59 43 65 74 72 69 76 91 54 19 48 84 109 118 129 140 148 157 156 148 147 152 147 159 173 185 246 273 280 271 253 245 253 260 264 266 260 254 253 256 256 248 236 220 209 207 204 197 192 188 190 202 207 212 221 228 235 241 241 241 243 244 245 244 245 249 252 254
60 74 82 54 183 251 307 313 312 320 339 50 89 160 226 323 353 48 77 78 74 75 76 77 79 90 92 76 63 67 74 76 80 87 94 105 125 134 127 126 125 110 228 256 290 294 289 291 283 264 246 247 261 270 269 261 255 256 258 253 244 231 214 205 204 197 187 183 181 185 203 215 226 236 240 244 249 249 248 248 246 243 240 242 248 257 266
59 89 86 18 284 237 322 319 324 348 25 91 118 153 116 22 35 67 75 77 81 79 79 82 84 84 78 69 65 63 61 61 63 66 70 75 81 87 88 90 74 3 310 307 312 302 295 292 280 261 244 248 268 271 260 253 251 252 250 241 229 215 202 199 201 194 185 180 177 181 200 223 233 241 246 248 249 249 249 249 246 243 244 249 256 265 275
70 77 57 48 208 292 325 323 330 17 55 138 123 100 80 61 65 72 72 73 76 78 80 80 76 73 68 64 62 60 57 54 52 51 54 56 57 62 60 49 40 20 328 310 298 283 276 272 260 245 235 242 255 250 241 244 250 250 243 227 211 202 201 205 205 198 190 190 196 201 213 226 235 246 256 256 251 249 248 248 252 256 257 257 263 275 282
78 88 77 150 215 296 336 12 80 68 85 111 108 98 87 73 70 71 70 68 69 71 74 72 69 67 64 61 58 53 49 48 47 45 43 42 44 45 36 24 26 27 335 296 281 270 263 255 243 232 227 231 238 236 234 240 248 249 240 218 205 206 221 225 215 207 204 214 231 230 227 233 246 259 261 258 252 246 246 251 255 255 253 256 270 283 283
94 126 170 197 242 304 44 88 99 92 93 99 96 90 87 79 75 73 69 66 64 65 67 67 65 63 61 59 54 47 42 39 37 33 30 32 36 34 24 19 17 7 346 322 301 282 266 251 235 226 226 231 235 239 241 242 244 245 233 209 204 218 246 236 217 212 216 231 245 243 233 237 253 257 252 252 248 243 248 254 250 244 249 263 276 280 272
73 66 38 23 6 24 79 92 97 97 97 94 86 83 81 76 73 71 66 62 59 58 60 61 60 58 57 57 53 48 46 42 31 23 19 19 20 17 13 14 12 1 347 334 319 299 270 246 233 229 231 234 238 245 246 241 240 243 235 220 218 236 248 231 217 218 226 232 234 225 204 202 239 245 246 250 248 244 245 244 240 245 260 270 271 266 260
104 60 332 345 16 25 73 89 94 96 95 92 85 81 75 66 60 56 53 52 47 42 44 50 54 54 52 51 47 42 42 37 24 18 16 9 5 2 357 352 351 351 346 329 311 291 260 237 229 228 230 231 235 242 243 239 234 225 215 213 211 200 188 183 183 194 203 199 178 154 135 132 201 224 232 241 247 242 233 231 239 257 269 266 259 258 261
103 133 180 91 60 50 62 84 92 92 90 88 82 76 72 65 52 41 40 40 35 33 35 37 41 43 43 43 39 31 27 22 17 17 15 5 360 357 351 345 341 341 337 316 289 267 242 226 220 222 225 225 227 228 226 221 208 182 168 170 163 150 145 142 138 143 152 151 147 151 178 204 211 220 237 253 252 238 231 240 256 266 265 257 254 258 263
89 116 154 133 81 59 58 75 85 89 91 91 86 80 75 70 63 50 40 35 32 34 35 27 22 29 35 35 32 23 15 12 12 8 359 356 356 351 350 351 344 330 318 299 278 257 234 221 218 218 214 209 208 209 202 193 182 160 142 139 144 147 148 149 146 141 138 143 153 164 197 223 232 253 272 268 253 238 240 256 264 261 256 251 252 259 267
110 127 164 145 116 79 66 81 87 91 95 95 92 89 85 79 77 71 64 61 52 41 33 24 19 25 29 28 26 23 14 6 6 0 353 353 348 333 327 328 315 301 293 281 266 245 227 219 214 207 200 194 190 189 187 185 183 171 157 154 155 153 153 158 164 167 173 188 198 205 218 239 254 264 266 257 247 244 253 260 256 251 249 249 255 264 271
124 146 127 118 113 107 92 91 91 93 95 93 90 90 90 89 86 80 74 70 61 49 42 35 28 26 25 20 15 15 11 5 2 357 347 337 315 295 288 282 279 280 275 265 255 240 225 216 208 201 200 199 196 194 193 189 187 196 201 191 181 171 173 196 215 217 221 226 224 222 229 244 253 255 254 251 248 248 252 254 251 248 249 255 262 268 275
104 112 110 105 101 95 89 87 88 88 89 89 88 87 86 86 83 78 73 69 62 56 50 42 34 29 25 18 11 6 2 354 344 329 301 286 285 285 282 275 270 268 265 261 255 240 223 211 204 201 202 203 202 204 203 198 207 258 238 209 207 235 253 254 256 249 244 247 243 236 238 243 245 248 251 250 246 248 253 254 250 248 253 259 263 273 286
101 102 103 102 99 94 88 83 79 76 76 79 81 80 79 80 80 77 73 68 61 56 51 45 39 30 22 17 13 6 358 346 331 310 290 291 296 291 286 282 275 270 266 261 253 238 218 203 199 199 199 196 195 198 204 209 225 265 256 227 237 264 263 243 237 240 243 247 245 239 239 242 245 249 249 246 247 254 255 250 246 250 257 261 267 281 294
101 99 96 92 88 84 82 77 70 66 67 69 72 73 72 71 72 69 65 60 54 49 45 42 37 30 23 18 14 8 3 354 338 315 293 292 299 297 294 290 278 260 244 229 218 207 197 192 197 205 205 200 199 204 216 222 231 253 256 235 237 240 223 209 213 218 223 230 233 235 239 243 247 248 246 245 250 254 252 254 261 266 266 266 274 286 294
99 101 96 85 72 66 70 71 67 67 69 67 68 69 66 62 60 56 52 49 44 39 35 31 26 22 18 14 11 7 3 355 346 334 316 303 302 301 298 292 277 244 215 198 186 177 174 180 203 213 210 207 211 218 224 226 228 228 215 205 204 205 207 215 222 224 228 233 235 237 240 242 244 244 242 242 248 253 262 273 276 272 268 270 276 285 290
81 83 88 92 85 75 74 73 72 71 67 61 60 62 57 48 42 35 33 33 30 25 22 19 12 5 0 360 1 360 356 351 346 343 336 322 307 301 298 295 279 239 212 197 183 172 170 209 239 226 217 217 222 216 206 198 196 194 191 189 194 205 217 227 234 239 242 240 238 240 243 242 240 239 240 248 258 265 271 271 266 261 263 269 275 282 286
74 74 78 83 86 87 84 74 66 63 57 50 46 43 35 27 24 22 20 18 14 8 5 1 357 351 348 346 345 346 349 348 342 341 340 331 314 298 293 292 275 231 204 189 180 182 196 228 233 225 222 216 201 186 177 175 178 182 188 198 209 219 228 236 243 245 243 238 237 241 240 238 239 244 252 261 266 267 264 259 255 256 260 265 271 277 280
75 76 77 74 73 79 76 61 51 47 42 35 29 24 18 13 12 10 6 1 355 349 344 341 338 336 335 334 334 335 337 334 331 333 337 334 321 291 276 278 257 214 196 190 192 204 216 226 234 237 228 202 181 174 173 177 182 187 197 208 217 224 232 240 244 244 240 236 236 236 236 239 246 252 255 259 263 261 255 251 253 255 257 262 269 273 275
82 76 73 66 60 60 56 47 39 33 26 18 12 7 4 0 357 352 349 345 339 333 329 326 324 325 326 326 326 327 325 322 318 317 321 325 319 285 253 254 239 211 200 200 207 218 230 242 245 233 209 185 176 175 176 181 188 200 213 220 222 224 229 235 240 242 242 239 237 238 243 247 250 251 255 260 262 256 250 250 253 254 254 260 268 271 271
70 56 46 39 36 38 36 30 22 16 11 4 360 360 359 355 350 344 338 335 329 325 322 320 317 318 319 319 320 320 318 315 312 307 304 305 303 285 250 244 242 228 216 214 223 238 249 248 230 208 193 184 178 175 174 183 199 215 225 229 228 225 226 233 239 241 241 242 247 255 260 261 261 262 264 264 257 249 247 250 250 247 250 261 268 268 265
45 41 27 18 16 16 15 11 4 360 356 351 348 347 344 340 336 331 325 322 319 318 320 320 319 317 316 315 316 317 316 315 314 310 303 296 293 287 268 250 250 247 239 234 237 244 240 221 202 193 188 181 177 180 194 212 216 217 223 228 230 228 227 228 230 233 236 243 252 259 264 267 268 266 262 255 246 242 244 244 240 239 251 263 265 261 258
48 49 33 17 12 8 1 355 348 342 339 335 332 329 329 328 326 322 318 316 315 314 315 316 316 314 313 313 314 314 313 314 315 315 310 299 290 288 287 271 257 251 246 243 240 225 203 191 187 187 185 184 189 202 214 215 212 215 219 220 221 221 221 221 225 233 241 250 259 265 267 265 260 252 249 252 251 243 238 236 233 237 252 262 260 256 255
40 36 20 5 1 355 348 344 341 337 334 331 327 325 324 322 318 314 313 312 313 313 313 312 312 310 310 311 311 308 307 309 313 315 312 303 294 292 290 280 263 249 236 225 211 195 186 185 187 187 189 196 206 210 210 213 217 219 217 215 215 217 221 226 234 242 250 258 269 275 270 259 249 240 242 254 256 245 236 235 234 239 254 266 265 259 255
26 21 13 4 355 349 345 343 338 334 332 330 327 326 324 320 315 310 306 303 304 305 307 308 308 308 308 309 308 306 304 306 312 314 309 301 296 291 282 268 251 229 207 190 178 174 178 187 192 194 205 225 231 214 209 216 222 220 218 221 224 225 228 233 237 246 259 270 280 280 268 257 253 252 254 257 254 245 241 242 243 248 259 266 265 259 255
40 34 28 20 12 5 357 348 341 333 327 321 318 318 319 319 317 312 305 300 297 296 299 302 302 303 304 305 305 303 301 303 309 311 305 296 285 270 251 229 210 196 183 170 164 165 176 196 210 218 228 227 214 201 199 205 213 220 226 231 232 235 241 247 253 264 273 279 287 286 274 267 270 272 264 259 256 252 252 250 248 250 257 261 260 256 251
45 41 36 29 23 17 9 359 350 338 326 318 312 311 316 321 322 319 315 310 304 299 297 295 293 291 292 291 289 289 292 298 304 305 295 270 237 224 211 196 188 181 169 164 181 215 246 265 267 258 240 220 206 202 209 219 226 236 246 252 256 261 267 271 273 275 274 273 279 291 291 290 288 267 254 250 250 252 255 255 256 258 261 261 258 253 247
46 44 40 33 27 24 20 17 15 10 3 354 340 332 333 331 328 327 329 329 327 322 314 305 297 290 286 284 281 280 282 289 297 298 278 227 203 196 190 185 188 195 197 214 235 244 250 254 252 245 232 221 217 214 217 226 239 255 267 273 276 276 274 270 262 249 228 224 246 281 314 330 313 266 248 244 246 252 257 261 263 265 262 257 253 251 249
47 43 37 32 27 27 30 33 34 33 31 25 18 11 4 353 346 348 349 347 349 351 349 343 334 315 294 285 283 281 280 282 285 278 239 205 195 192 191 199 221 240 242 239 232 218 203 202 211 207 196 208 248 276 278 269 268 271 274 276 276 274 267 258 243 222 204 199 205 223 286 332 327 288 255 249 256 261 262 264 266 265 259 254 252 252 251
45 39 34 32 31 34 38 38 35 33 31 29 29 25 17 11 8 5 1 2 9 12 10 9 6 358 340 313 294 288 285 278 260 233 211 201 203 217 246 264 258 236 218 210 201 192 186 190 205 220 269 296 300 301 296 285 279 284 288 290 288 277 263 253 246 241 237 233 229 228 241 266 284 286 276 269 268 265 261 262 264 261 253 249 249 251 255
39 36 35 36 40 44 44 39 32 26 19 17 20 18 13 13 16 15 14 18 21 15 12 13 12 9 7 4 341 315 304 286 255 233 218 214 235 292 310 290 204 175 171 176 184 190 198 222 252 265 274 278 279 285 296 311 328 324 313 297 279 263 256 254 254 253 252 250 249 249 249 253 260 265 265 264 268 269 266 262 260 254 247 244 244 247 253
33 33 33 39 46 50 50 47 44 35 23 18 18 12 5 9 18 19 20 24 15 6 9 18 18 14 14 19 19 15 23 48 64 54 45 55 85 60 54 154 184 179 175 179 197 224 246 252 249 248 248 249 273 310 306 293 294 299 297 290 280 271 267 265 263 261 263 266 269 270 271 269 268 268 266 264 264 265 264 264 261 255 249 248 248 249 251
28 29 31 35 39 44 47 50 49 43 33 29 29 24 16 12 8 4 5 6 360 358 6 22 32 29 22 18 22 35 53 66 65 55 48 57 79 74 76 189 206 208 209 220 239 254 262 266 260 255 271 293 292 287 281 277 274 268 271 301 319 313 298 288 282 279 278 280 280 282 286 287 283 280 276 270 264 259 257 258 259 256 251 249 251 253 253
27 28 32 35 37 41 47 50 51 49 42 37 37 36 33 25 13 4 3 6 6 4 7 18 30 36 35 29 27 33 39 45 54 57 52 42 23 358 326 243 225 234 246 253 256 258 263 272 279 283 284 282 280 280 277 268 259 263 294 321 330 327 319 316 313 304 296 295 296 298 301 305 306 301 291 278 267 260 254 250 249 250 250 248 246 247 248
28 29 31 35 43 51 55 54 52 53 52 48 46 44 40 35 28 21 17 15 15 17 18 19 21 28 34 36 33 26 11 7 21 53 69 38 2 342 323 285 250 238 236 242 257 265 267 270 272 273 273 273 277 282 279 269 271 288 307 318 321 317 311 306 301 294 292 301 307 307 308 312 315 316 310 292 272 261 253 247 243 245 250 251 248 246 245
28 31 33 39 51 61 64 60 53 51 49 49 48 45 40 37 33 27 23 21 21 20 19 17 15 16 20 25 34 42 35 12 1 2 3 355 344 335 320 294 268 229 213 243 264 274 280 283 284 284 283 284 287 286 282 278 282 289 295 304 313 317 311 302 296 292 290 289 292 297 302 306 311 317 317 303 278 258 250 248 248 250 254 256 254 250 245
19 28 32 37 48 60 64 59 50 43 40 40 41 40 36 34 34 32 29 27 27 26 21 15 9 3 2 6 14 25 29 16 356 345 336 325 317 315 313 308 302 288 264 263 271 278 285 287 287 288 290 292 293 290 285 282 282 283 286 296 311 318 315 306 299 294 290 287 285 288 293 298 303 310 313 303 282 263 253 253 256 259 260 259 256 252 247
13 21 25 27 38 55 58 52 44 38 32 28 29 32 33 31 33 34 29 22 19 18 13 4 357 356 359 2 3 359 352 340 329 319 309 303 298 295 291 288 286 283 276 270 271 276 280 278 270 264 267 278 290 295 293 287 281 278 279 286 298 308 311 307 300 293 289 287 286 285 285 290 296 302 304 298 284 270 262 258 257 259 262 260 256 251 246
12 7 14 25 40 55 51 42 38 35 28 20 17 21 24 21 18 19 18 14 12 12 10 6 359 354 350 349 345 337 326 315 305 299 296 290 279 269 265 265 266 267 267 265 266 269 271 264 256 254 258 266 274 281 286 286 283 280 277 278 285 295 303 303 298 293 291 291 290 289 286 287 292 299 303 302 291 275 265 260 259 260 261 260 255 249 241
348 341 17 38 42 39 25 18 23 28 27 22 19 17 15 8 2 0 359 357 357 1 6 9 7 358 347 339 332 321 307 296 290 290 291 288 281 274 268 265 262 261 259 255 253 255 257 256 253 255 259 263 267 271 276 280 280 280 279 277 278 284 290 291 289 288 290 291 291 292 292 291 291 294 299 305 303 288 270 261 259 260 260 259 255 249 239
336 338 4 11 8 1 351 354 4 13 17 18 16 10 2 358 356 356 354 347 341 342 349 352 352 349 346 341 337 328 313 298 293 295 296 295 291 284 277 271 268 266 262 256 250 248 250 253 254 256 259 263 266 269 272 275 276 279 280 279 277 278 283 285 282 280 281 282 283 286 290 291 289 288 291 296 301 297 282 267 258 254 252 250 247 243 237
Height
1404 1404 1403 1405 1409 1410 1408 1409 1409 1409 1412 1415 1417 1418 1420 1423 1430 1432 1428 1429 1430 1424 1421 1422 1419 1416 1415 1415 1416 1417 1419 1424 1428 1431 1433 1435 1436 1438 1439 1441 1443 1445 1447 1448 1449 1451 1453 1455 1458 1460 1461 1463 1465 1467 1469 1471 1472 1474 1475 1477 1479 1480 1482 1484 1486 1489 1493 1497 1499 1502 1504 1505 1506 1508 1509 1511 1513 1515 1516 1517 1518 1518 1519 1520 1521 1521 1520
1402 1402 1400 1400 1404 1408 1408 1408 1407 1405 1407 1409 1409 1411 1414 1415 1416 1416 1418 1424 1423 1415 1413 1412 1408 1407 1408 1410 1413 1416 1419 1423 1425 1428 1430 1431 1433 1434 1435 1438 1440 1442 1444 1446 1448 1450 1452 1454 1456 1457 1459 1461 1462 1464 1466 1468 1469 1471 1472 1474 1474 1476 1477 1479 1481 1484 1488 1492 1495 1497 1499 1500 1503 1505 1507 1509 1511 1513 1514 1515 1516 1517 1517 1518 1519 1519 1518
1404 1400 1399 1399 1403 1406 1407 1406 1405 1404 1406 1407 1406 1408 1413 1414 1414 1414 1418 1424 1421 1410 1405 1405 1404 1405 1408 1411 1414 1415 1417 1420 1422 1424 1426 1427 1429 1431 1433 1436 1439 1441 1443 1445 1448 1450 1451 1453 1454 1455 1456 1458 1459 1461 1463 1465 1466 1467 1469 1470 1470 1472 1473 1475 1477 1479 1483 1486 1489 1491 1493 1496 1500 1503 1505 1507 1509 1511 1512 1513 1514 1515 1516 1516 1516 1516 1516
1406 1397 1398 1401 1402 1405 1408 1405 1402 1403 1406 1408 1407 1407 1409 1411 1412 1415 1423 1427 1419 1407 1402 1405 1406 1406 1408 1410 1411 1413 1415 1417 1418 1420 1422 1424 1426 1429 1431 1434 1437 1440 1442 1444 1447 1449 1450 1451 1453 1454 1455 1456 1457 1458 1460 1462 1464 1467 1467 1466 1467 1469 1470 1472 1473 1473 1477 1482 1486 1489 1494 1498 1501 1502 1503 1505 1507 1508 1509 1511 1512 1513 1514 1514 1514 1514 1513
1404 1395 1396 1400 1403 1413 1416 1405 1397 1399 1400 1400 1403 1405 1406 1405 1407 1413 1419 1415 1407 1401 1402 1407 1408 1408 1408 1408 1407 1409 1411 1413 1415 1418 1420 1423 1425 1427 1430 1433 1436 1439 1441 1444 1446 1448 1449 1451 1451 1452 1453 1455 1455 1456 1459 1462 1464 1466 1465 1464 1465 1468 1469 1471 1472 1475 1481 1486 1489 1492 1497 1501 1503 1502 1502 1503 1505 1506 1507 1509 1510 1511 1511 1512 1512 1512 1511
1400 1396 1394 1400 1413 1422 1414 1396 1388 1390 1392 1394 1401 1407 1408 1405 1404 1406 1407 1404 1400 1400 1401 1404 1406 1406 1404 1404 1404 1406 1408 1411 1416 1419 1420 1423 1425 1427 1430 1433 1436 1440 1442 1445 1447 1448 1450 1450 1451 1452 1453 1454 1455 1456 1460 1462 1461 1461 1462 1464 1466 1468 1468 1469 1471 1474 1480 1485 1488 1491 1493 1497 1500 1501 1501 1502 1502 1504 1505 1507 1508 1508 1509 1509 1510 1510 1509
1397 1397 1397 1410 1424 1416 1398 1390 1388 1386 1387 1391 1399 1406 1406 1404 1402 1399 1399 1402 1402 1399 1396 1395 1398 1401 1402 1404 1406 1408 1411 1413 1415 1418 1421 1423 1426 1429 1432 1435 1438 1441 1443 1445 1447 1448 1450 1450 1451 1451 1452 1452 1453 1455 1457 1458 1458 1459 1461 1463 1465 1466 1466 1466 1465 1466 1471 1477 1483 1486 1489 1493 1496 1498 1500 1500 1500 1502 1503 1504 1505 1506 1507 1507 1507 1507 1507
1396 1399 1402 1412 1416 1403 1392 1392 1391 1388 1388 1389 1395 1406 1408 1404 1403 1400 1397 1400 1402 1400 1398 1395 1396 1401 1404 1406 1409 1411 1413 1416 1417 1420 1422 1425 1428 1430 1433 1435 1438 1440 1442 1444 1446 1447 1448 1450 1451 1451 1451 1451 1452 1453 1455 1455 1456 1458 1459 1461 1462 1462 1462 1462 1461 1462 1466 1471 1478 1483 1486 1490 1493 1496 1497 1498 1499 1500 1501 1501 1503 1504 1504 1505 1505 1504 1505
1395 1399 1405 1406 1405 1404 1401 1398 1395 1395 1395 1389 1391 1406 1412 1407 1406 1404 1399 1399 1401 1401 1402 1400 1398 1401 1405 1410 1413 1414 1416 1419 1421 1423 1424 1426 1429 1431 1432 1435 1437 1439 1442 1443 1444 1446 1447 1448 1449 1450 1450 1450 1450 1451 1452 1453 1454 1455 1457 1458 1459 1459 1459 1458 1459 1464 1467 1471 1476 1480 1484 1488 1491 1494 1495 1494 1495 1497 1498 1498 1500 1501 1502 1502 1502 1502 1502
1394 1397 1407 1412 1415 1416 1408 1399 1396 1396 1397 1391 1387 1399 1411 1408 1406 1404 1399 1399 1400 1401 1404 1405 1401 1401 1410 1418 1419 1418 1420 1422 1423 1425 1426 1428 1430 1431 1433 1435 1436 1438 1440 1441 1443 1444 1445 1447 1448 1448 1449 1449 1449 1450 1450 1451 1452 1453 1455 1456 1456 1456 1456 1457 1460 1464 1466 1469 1472 1477 1482 1486 1488 1489 1490 1490 1491 1493 1495 1496 1497 1498 1499 1499 1499 1499 1498
1396 1398 1407 1416 1421 1416 1406 1400 1396 1393 1394 1389 1385 1399 1415 1410 1404 1403 1401 1400 1402 1401 1404 1406 1404 1407 1419 1426 1423 1420 1422 1423 1423 1425 1428 1430 1432 1433 1433 1435 1436 1437 1439 1440 1442 1443 1445 1446 1447 1447 1448 1448 1448 1449 1449 1450 1451 1451 1452 1453 1453 1453 1453 1455 1460 1462 1463 1466 1470 1474 1479 1483 1483 1484 1485 1486 1487 1490 1492 1494 1494 1495 1496 1496 1496 1496 1495
1399 1403 1412 1416 1415 1410 1403 1399 1396 1392 1388 1382 1390 1416 1427 1413 1405 1406 1403 1404 1406 1405 1405 1407 1408 1416 1426 1428 1424 1423 1423 1423 1423 1425 1428 1431 1433 1433 1434 1435 1436 1438 1439 1440 1442 1443 1444 1445 1445 1445 1446 1446 1446 1447 1447 1448 1447 1447 1448 1448 1449 1450 1450 1452 1456 1458 1460 1465 1470 1473 1477 1479 1480 1481 1482 1484 1487 1490 1491 1491 1492 1493 1493 1493 1494 1493 1493
1399 1404 1414 1417 1413 1406 1401 1397 1393 1389 1385 1388 1408 1429 1428 1414 1412 1411 1406 1407 1410 1408 1408 1410 1414 1421 1425 1425 1425 1425 1425 1425 1425 1426 1429 1432 1433 1434 1435 1435 1437 1439 1441 1442 1442 1443 1443 1443 1443 1443 1443 1444 1444 1445 1445 1445 1445 1445 1446 1448 1448 1448 1448 1450 1454 1457 1460 1465 1468 1471 1475 1477 1479 1480 1481 1484 1488 1489 1489 1489 1489 1489 1489 1489 1490 1490 1490
1405 1407 1414 1420 1416 1405 1398 1397 1392 1387 1392 1409 1424 1426 1420 1417 1417 1413 1411 1412 1412 1410 1412 1415 1418 1422 1424 1424 1425 1426 1427 1428 1429 1430 1432 1433 1434 1435 1435 1435 1436 1438 1441 1442 1442 1442 1442 1442 1442 1442 1442 1442 1443 1443 1444 1444 1444 1445 1448 1451 1452 1452 1452 1454 1457 1459 1462 1465 1468 1470 1473 1475 1478 1479 1480 1484 1486 1485 1486 1487 1487 1486 1485 1485 1485 1487 1488
1408 1411 1418 1425 1422 1408 1398 1397 1397 1396 1404 1418 1422 1419 1419 1421 1418 1414 1415 1416 1415 1415 1416 1417 1420 1422 1422 1424 1425 1426 1429 1430 1431 1432 1433 1433 1434 1435 1435 1435 1436 1437 1439 1440 1441 1441 1441 1440 1440 1440 1441 1442 1442 1443 1443 1443 1443 1444 1446 1450 1453 1455 1456 1458 1460 1463 1466 1468 1470 1471 1472 1473 1476 1477 1479 1481 1483 1483 1484 1485 1486 1485 1484 1482 1482 1483 1484
1410 1418 1425 1426 1421 1412 1402 1401 1405 1409 1413 1416 1417 1418 1420 1421 1420 1419 1418 1418 1419 1420 1418 1418 1420 1421 1422 1424 1426 1427 1429 1431 1432 1433 1434 1434 1435 1436 1437 1437 1436 1437 1438 1438 1439 1439 1439 1439 1439 1439 1440 1441 1442 1442 1442 1442 1443 1444 1446 1449 1452 1455 1458 1460 1462 1466 1469 1470 1471 1471 1471 1472 1474 1476 1478 1479 1480 1480 1480 1480 1481 1481 1480 1480 1480 1480 1480
1411 1415 1421 1419 1417 1415 1410 1406 1409 1413 1414 1417 1419 1419 1419 1421 1423 1422 1420 1421 1423 1422 1421 1421 1421 1421 1423 1424 1425 1426 1428 1430 1433 1435 1435 1436 1437 1437 1438 1438 1437 1437 1437 1437 1437 1437 1437 1437 1438 1439 1440 1440 1441 1442 1442 1442 1443 1445 1447 1449 1451 1454 1456 1457 1460 1464 1467 1469 1470 1470 1470 1471 1473 1475 1475 1475 1475 1475 1476 1476 1476 1477 1477 1478 1478 1477 1478
1412 1413 1417 1418 1418 1419 1414 1411 1412 1413 1415 1419 1420 1420 1421 1424 1424 1423 1423 1424 1424 1423 1423 1423 1422 1424 1426 1425 1426 1427 1428 1429 1432 1434 1436 1437 1438 1438 1438 1437 1436 1436 1435 1435 1436 1436 1436 1437 1438 1438 1439 1440 1441 1441 1442 1442 1444 1445 1447 1448 1450 1452 1453 1454 1457 1462 1464 1466 1468 1469 1469 1469 1471 1471 1472 1472 1472 1473 1473 1474 1474 1475 1475 1475 1475 1475 1476
1417 1423 1424 1421 1421 1422 1418 1416 1416 1415 1416 1419 1420 1421 1423 1424 1425 1426 1426 1425 1424 1425 1425 1425 1425 1426 1426 1425 1427 1428 1428 1429 1432 1433 1436 1438 1439 1439 1439 1437 1436 1434 1433 1434 1436 1436 1436 1436 1436 1437 1439 1439 1439 1440 1441 1441 1443 1444 1445 1446 1448 1451 1453 1455 1458 1460 1462 1464 1465 1466 1466 1466 1467 1468 1470 1471 1471 1470 1471 1471 1472 1473 1473 1473 1473 1473 1474
1416 1424 1426 1423 1424 1425 1422 1420 1419 1417 1418 1419 1420 1421 1423 1424 1426 1428 1428 1426 1426 1427 1428 1428 1426 1426 1426 1426 1427 1428 1428 1430 1431 1433 1436 1438 1439 1440 1439 1437 1435 1433 1433 1435 1437 1436 1435 1435 1435 1436 1437 1437 1437 1438 1439 1441 1441 1442 1444 1446 1448 1451 1455 1457 1458 1458 1460 1461 1462 1462 1464 1466 1467 1468 1469 1469 1468 1468 1468 1469 1470 1470 1470 1470 1471 1472 1472
1417 1422 1424 1425 1426 1427 1426 1425 1424 1422 1420 1420 1420 1422 1423 1425 1428 1429 1429 1429 1429 1430 1430 1429 1428 1427 1428 1428 1428 1428 1429 1429 1430 1432 1433 1435 1437 1438 1436 1435 1434 1434 1435 1436 1436 1435 1434 1434 1434 1434 1435 1436 1436 1437 1438 1440 1441 1442 1444 1446 1449 1451 1453 1455 1455 1456 1458 1460 1460 1462 1464 1465 1467 1467 1466 1466 1466 1466 1467 1467 1467 1468 1468 1468 1469 1470 1470
1423 1424 1423 1423 1427 1430 1431 1430 1428 1427 1425 1423 1423 1424 1426 1429 1432 1434 1434 1433 1432 1431 1431 1430 1429 1428 1428 1428 1428 1427 1427 1427 1428 1428 1429 1431 1434 1434 1433 1433 1434 1435 1435 1435 1435 1434 1433 1433 1433 1433 1433 1434 1436 1437 1439 1440 1441 1443 1445 1446 1448 1450 1452 1453 1453 1454 1456 1457 1458 1460 1460 1461 1462 1462 1462 1463 1464 1464 1464 1465 1465 1466 1466 1467 1468 1468 1469
1421 1422 1421 1421 1424 1428 1431 1430 1429 1428 1427 1425 1425 1426 1428 1431 1434 1435 1436 1434 1432 1431 1431 1430 1430 1429 1427 1426 1426 1425 1425 1425 1424 1425 1428 1430 1431 1432 1432 1432 1433 1434 1434 1433 1432 1432 1432 1432 1432 1432 1432 1433 1435 1436 1439 1441 1442 1444 1445 1446 1448 1450 1451 1452 1452 1451 1452 1452 1453 1455 1456 1457 1458 1458 1459 1461 1462 1462 1463 1463 1463 1464 1465 1465 1466 1467 1466
1416 1420 1420 1419 1421 1426 1430 1430 1429 1429 1428 1427 1427 1428 1428 1430 1433 1435 1435 1433 1431 1431 1431 1431 1430 1429 1428 1427 1426 1425 1426 1425 1425 1426 1428 1429 1430 1431 1431 1431 1431 1432 1431 1431 1431 1430 1430 1431 1431 1432 1433 1434 1435 1437 1439 1441 1443 1444 1445 1446 1447 1448 1450 1450 1450 1449 1450 1450 1451 1453 1454 1455 1455 1456 1458 1459 1460 1461 1461 1461 1462 1463 1463 1464 1464 1464 1464
1414 1419 1420 1419 1420 1424 1428 1428 1428 1429 1430 1428 1427 1428 1429 1431 1433 1435 1435 1433 1432 1432 1432 1432 1431 1430 1429 1428 1428 1428 1428 1427 1427 1428 1428 1428 1429 1429 1429 1429 1430 1430 1429 1429 1429 1430 1430 1431 1432 1434 1435 1436 1437 1439 1440 1441 1442 1443 1444 1445 1447 1447 1448 1448 1447 1448 1448 1449 1450 1451 1452 1453 1454 1455 1456 1457 1458 1459 1459 1460 1460 1461 1462 1462 1462 1462 1461
1416 1419 1419 1419 1420 1423 1425 1426 1426 1429 1431 1430 1428 1429 1431 1433 1435 1436 1435 1434 1433 1432 1432 1432 1432 1431 1431 1431 1431 1430 1430 1429 1429 1429 1428 1428 1427 1426 1426 1427 1428 1429 1430 1430 1430 1431 1432 1433 1435 1436 1436 1437 1439 1440 1441 1441 1442 1443 1444 1445 1446 1447 1447 1447 1447 1448 1448 1448 1449 1450 1451 1452 1452 1453 1454 1456 1456 1457 1458 1458 1459 1460 1460 1460 1460 1459 1459
1417 1419 1419 1420 1422 1424 1426 1427 1428 1431 1432 1431 1429 1430 1432 1433 1434 1434 1433 1432 1431 1431 1431 1432 1432 1432 1433 1433 1432 1432 1431 1430 1430 1429 1428 1427 1426 1425 1425 1425 1426 1427 1429 1429 1431 1433 1435 1438 1439 1438 1437 1438 1439 1440 1441 1442 1442 1443 1443 1444 1445 1446 1447 1447 1447 1447 1448 1448 1449 1450 1450 1450 1451 1452 1453 1454 1455 1456 1457 1457 1458 1458 1458 1458 1458 1458 1457
1418 1420 1420 1422 1425 1428 1430 1431 1432 1432 1431 1431 1430 1431 1432 1432 1432 1432 1431 1431 1430 1431 1431 1432 1432 1433 1433 1433 1433 1433 1432 1431 1430 1429 1428 1427 1426 1425 1424 1424 1424 1425 1426 1428 1430 1432 1435 1438 1439 1438 1439 1440 1440 1440 1441 1441 1441 1442 1443 1444 1444 1445 1445 1446 1446 1446 1447 1447 1448 1448 1449 1449 1450 1451 1453 1454 1454 1455 1455 1456 1456 1456 1457 1457 1457 1456 1456
1421 1423 1424 1426 1428 1430 1431 1432 1431 1431 1430 1431 1431 1431 1431 1431 1431 1431 1431 1431 1431 1431 1432 1432 1432 1433 1433 1433 1433 1432 1431 1431 1430 1429 1428 1427 1426 1424 1424 1423 1423 1424 1425 1428 1430 1431 1432 1434 1436 1437 1439 1439 1439 1439 1440 1440 1441 1442 1442 1443 1443 1444 1444 1444 1444 1445 1445 1446 1446 1447 1448 1449 1450 1451 1451 1452 1453 1453 1454 1454 1454 1455 1455 1455 1455 1455 1454
1425 1426 1427 1428 1429 1430 1430 1430 1430 1430 1430 1431 1431 1430 1431 1431 1430 1430 1431 1431 1431 1432 1432 1432 1433 1433 1433 1433 1433 1432 1431 1431 1430 1429 1428 1426 1425 1424 1423 1423 1423 1423 1425 1427 1429 1430 1431 1433 1434 1436 1438 1438 1437 1438 1439 1439 1440 1441 1441 1442 1443 1443 1443 1444 1444 1444 1444 1445 1445 1446 1447 1448 1449 1449 1450 1450 1451 1451 1452 1453 1453 1453 1453 1453 1453 1453 1453
1427 1427 1427 1428 1428 1428 1428 1428 1429 1429 1430 1430 1430 1430 1430 1430 1430 1430 1430 1430 1431 1431 1431 1432 1432 1432 1432 1431 1431 1431 1430 1430 1428 1427 1426 1425 1424 1423 1422 1422 1422 1423 1424 1426 1427 1429 1430 1431 1433 1434 1435 1436 1437 1438 1438 1439 1440 1440 1441 1442 1442 1442 1443 1443 1443 1444 1444 1445 1445 1446 1447 1447 1448 1448 1448 1448 1449 1449 1450 1451 1451 1451 1451 1451 1451 1452 1452
1426 1425 1425 1426 1426 1426 1427 1427 1428 1428 1429 1429 1429 1429 1430 1430 1430 1430 1430 1430 1430 1430 1430 1430 1430 1430 1430 1430 1430 1429 1429 1428 1426 1425 1424 1423 1422 1422 1421 1422 1422 1422 1424 1425 1426 1426 1428 1429 1431 1432 1433 1434 1435 1437 1437 1438 1438 1439 1440 1441 1441 1442 1442 1443 1443 1444 1444 1445 1445 1446 1446 1446 1446 1446 1445 1446 1446 1447 1448 1448 1449 1449 1449 1450 1450 1450 1451
1424 1424 1424 1425 1424 1425 1426 1427 1428 1429 1429 1429 1429 1429 1429 1430 1429 1429 1429 1429 1429 1429 1429 1429 1429 1429 1428 1428 1428 1427 1426 1425 1424 1423 1422 1421 1420 1419 1419 1420 1421 1421 1422 1423 1423 1424 1426 1427 1428 1430 1431 1432 1434 1435 1436 1436 1437 1438 1439 1440 1440 1440 1441 1441 1442 1443 1443 1444 1444 1444 1444 1444 1443 1443 1443 1443 1443 1444 1445 1446 1446 1447 1447 1448 1448 1449 1449
1426 1427 1428 1428 1428 1428 1428 1429 1429 1429 1429 1430 1429 1429 1429 1428 1428 1428 1428 1428 1428 1428 1429 1429 1428 1428 1427 1427 1426 1426 1425 1423 1422 1421 1419 1418 1417 1417 1416 1416 1417 1418 1418 1419 1420 1421 1423 1426 1428 1430 1431 1431 1432 1433 1434 1435 1436 1437 1437 1438 1438 1439 1439 1440 1441 1441 1442 1442 1443 1442 1442 1441 1440 1440 1441 1442 1442 1443 1443 1444 1444 1445 1445 1446 1447 1447 1447
1429 1430 1431 1430 1430 1431 1431 1431 1430 1430 1430 1430 1430 1429 1429 1429 1429 1429 1429 1428 1428 1428 1427 1427 1427 1426 1425 1425 1424 1424 1423 1422 1420 1419 1418 1417 1416 1415 1414 1414 1414 1415 1415 1417 1418 1419 1422 1425 1429 1430 1430 1430 1431 1431 1432 1434 1435 1435 1436 1437 1437 1438 1439 1439 1440 1440 1441 1441 1441 1441 1440 1438 1437 1438 1440 1440 1441 1442 1442 1442 1443 1444 1444 1445 1445 1445 1446
1431 1432 1432 1432 1432 1433 1432 1432 1432 1432 1431 1431 1431 1431 1431 1430 1430 1429 1429 1429 1428 1427 1427 1426 1425 1424 1423 1422 1422 1421 1421 1420 1418 1417 1416 1414 1414 1414 1413 1413 1414 1414 1414 1416 1418 1420 1422 1424 1427 1428 1428 1428 1429 1430 1432 1433 1433 1434 1435 1436 1437 1437 1438 1439 1439 1439 1439 1439 1439 1438 1438 1437 1437 1439 1440 1440 1440 1440 1440 1441 1442 1442 1443 1443 1443 1444 1444
1433 1433 1433 1433 1433 1433 1433 1433 1433 1433 1432 1432 1432 1431 1431 1431 1430 1429 1429 1428 1427 1426 1425 1424 1423 1422 1421 1420 1419 1419 1418 1417 1416 1415 1413 1413 1413 1413 1413 1413 1414 1415 1415 1417 1419 1421 1423 1424 1424 1425 1426 1425 1426 1428 1431 1432 1432 1432 1433 1434 1435 1437 1437 1437 1437 1437 1437 1436 1436 1436 1436 1436 1437 1438 1438 1438 1438 1438 1439 1440 1440 1440 1441 1442 1442 1442 1442
1434 1434 1434 1434 1434 1434 1434 1433 1433 1432 1432 1432 1431 1431 1430 1430 1429 1428 1427 1426 1425 1425 1424 1422 1421 1420 1419 1418 1417 1417 1416 1415 1414 1413 1412 1412 1412 1412 1413 1414 1415 1416 1416 1418 1420 1422 1423 1423 1423 1423 1424 1426 1428 1429 1430 1430 1430 1431 1432 1433 1434 1435 1435 1436 1436 1435 1435 1434 1435 1435 1435 1435 1436 1436 1436 1437 1437 1437 1437 1438 1438 1439 1439 1440 1440 1440 1441
1435 1434 1434 1434 1434 1434 1433 1433 1432 1432 1431 1430 1430 1430 1429 1429 1428 1427 1426 1425 1425 1423 1422 1421 1419 1418 1417 1416 1415 1414 1414 1413 1413 1412 1411 1411 1412 1413 1413 1414 1415 1416 1417 1419 1421 1423 1423 1422 1422 1422 1424 1427 1429 1430 1430 1429 1429 1430 1431 1432 1433 1433 1433 1433 1433 1433 1433 1433 1433 1433 1434 1434 1435 1435 1435 1435 1435 1436 1436 1437 1437 1437 1437 1438 1438 1438 1439
1435 1435 1435 1435 1434 1434 1434 1433 1432 1432 1431 1430 1430 1429 1429 1428 1427 1426 1425 1425 1424 1422 1421 1419 1417 1416 1414 1413 1413 1412 1412 1413 1413 1412 1411 1412 1412 1413 1413 1414 1416 1417 1417 1419 1421 1422 1422 1421 1422 1424 1425 1426 1427 1427 1427 1428 1428 1429 1430 1431 1431 1432 1432 1431 1431 1431 1432 1432 1432 1433 1433 1433 1433 1434 1434 1434 1434 1435 1435 1435 1435 1436 1436 1436 1436 1437 1437
1437 1436 1436 1436 1435 1434 1434 1433 1432 1431 1431 1430 1429 1429 1428 1428 1427 1426 1425 1424 1422 1421 1420 1418 1416 1415 1413 1412 1412 1412 1412 1412 1412 1412 1412 1412 1413 1413 1413 1415 1416 1417 1416 1418 1420 1422 1422 1422 1423 1424 1425 1425 1426 1426 1426 1427 1428 1428 1429 1430 1430 1430 1430 1430 1430 1431 1431 1431 1431 1431 1431 1432 1432 1433 1433 1433 1433 1434 1434 1434 1434 1434 1434 1434 1434 1435 1435
1438 1438 1437 1436 1435 1435 1434 1433 1432 1431 1430 1430 1429 1428 1428 1427 1426 1425 1424 1423 1422 1421 1420 1419 1418 1416 1415 1414 1413 1413 1413 1413 1413 1413 1414 1414 1415 1415 1415 1416 1417 1417 1417 1419 1421 1422 1423 1424 1424 1425 1425 1425 1425 1425 1426 1426 1427 1428 1428 1429 1429 1429 1429 1429 1429 1430 1430 1430 1430 1430 1430 1431 1431 1431 1431 1432 1432 1432 1432 1432 1432 1432 1433 1433 1433 1433 1433
1439 1439 1438 1437 1436 1435 1434 1433 1432 1431 1431 1430 1429 1428 1428 1427 1426 1426 1425 1424 1424 1423 1422 1421 1420 1418 1417 1416 1415 1415 1415 1415 1415 1415 1416 1416 1416 1416 1417 1417 1418 1418 1419 1421 1423 1423 1424 1424 1424 1425 1425 1425 1425 1425 1426 1426 1427 1427 1428 1428 1428 1428 1428 1428 1428 1428 1428 1428 1429 1429 1429 1429 1429 1429 1430 1430 1430 1430 1430 1430 1431 1431 1431 1431 1431 1431 1431
1440 1439 1438 1437 1437 1435 1435 1434 1433 1432 1431 1430 1429 1429 1428 1428 1427 1427 1426 1426 1425 1424 1423 1422 1421 1419 1418 1417 1417 1417 1416 1416 1416 1417 1417 1417 1418 1418 1418 1419 1419 1420 1421 1422 1423 1423 1423 1423 1424 1424 1425 1425 1425 1425 1426 1426 1426 1427 1427 1427 1427 1427 1427 1427 1427 1427 1427 1427 1427 1427 1427 1427 1428 1428 1427 1427 1427 1428 1428 1428 1428 1429 1429 1429 1429 1429 1429
1440 1439 1438 1438 1437 1436 1435 1434 1433 1433 1432 1431 1430 1429 1428 1428 1427 1427 1426 1426 1425 1424 1423 1422 1421 1420 1419 1419 1418 1418 1418 1418 1418 1418 1418 1419 1419 1420 1419 1419 1420 1420 1421 1422 1422 1422 1423 1423 1423 1424 1424 1425 1425 1425 1425 1425 1426 1426 1426 1426 1426 1426 1426 1425 1425 1425 1425 1425 1425 1425 1425 1425 1425 1425 1425 1424 1424 1424 1424 1425 1426 1426 1426 1427 1427 1427 1428
1440 1439 1439 1438 1437 1437 1436 1435 1434 1434 1433 1431 1430 1429 1429 1428 1427 1427 1426 1425 1424 1423 1423 1422 1422 1421 1421 1420 1420 1420 1420 1419 1419 1419 1420 1420 1420 1420 1420 1420 1420 1420 1421 1421 1422 1422 1422 1423 1423 1423 1424 1424 1424 1424 1424 1425 1425 1425 1425 1425 1425 1425 1424 1424 1424 1424 1424 1424 1424 1424 1423 1423 1423 1422 1422 1421 1421 1421 1421 1422 1423 1423 1424 1424 1424 1425 1425
1440 1440 1439 1439 1438 1437 1436 1436 1435 1434 1433 1431 1430 1429 1428 1428 1427 1426 1426 1425 1424 1423 1423 1423 1422 1421 1421 1421 1420 1420 1420 1420 1420 1420 1420 1420 1421 1421 1420 1420 1420 1420 1421 1421 1421 1421 1422 1422 1423 1423 1423 1423 1423 1423 1424 1424 1424 1424 1424 1424 1424 1423 1423 1423 1422 1422 1422 1422 1422 1422 1421 1421 1420 1420 1419 1419 1418 1419 1419 1419 1420 1421 1421 1422 1422 1422 1422
1440 1440 1439 1439 1438 1437 1436 1435 1435 1433 1432 1431 1430 1429 1428 1428 1427 1426 1426 1425 1424 1424 1423 1423 1422 1422 1422 1421 1421 1420 1420 1420 1420 1420 1420 1421 1421 1421 1420 1420 1420 1420 1421 1421 1421 1421 1422 1422 1422 1422 1423 1423 1423 1423 1423 1423 1423 1423 1422 1422 1422 1422 1421 1421 1421 1420 1420 1420 1420 1420 1419 1419 1419 1418 1417 1417 1417 1417 1417 1417 1418 1419 1419 1419 1419 1419 1419
1440 1439 1439 1438 1437 1437 1436 1435 1433 1432 1431 1431 1430 1429 1429 1428 1427 1427 1426 1426 1425 1425 1424 1423 1423 1422 1422 1421 1421 1420 1420 1420 1420 1420 1420 1420 1420 1420 1420 1420 1420 1420 1420 1420 1420 1421 1421 1421 1421 1422 1422 1422 1422 1422 1421 1421 1421 1421 1421 1420 1420 1420 1419 1419 1419 1418 1418 1418 1418 1417 1417 1417 1417 1416 1416 1415 1415 1415 1415 1415 1416 1416 1416 1417 1417 1417 1417
1439 1438 1438 1437 1436 1436 1435 1434 1433 1432 1431 1431 1430 1429 1429 1429 1428 1428 1427 1426 1426 1425 1424 1423 1423 1422 1422 1421 1421 1420 1420 1420 1420 1419 1419 1419 1419 1419 1419 1419 1419 1419 1419 1419 1419 1420 1420 1420 1420 1420 1420 1420 1420 1420 1420 1419 1419 1419 1419 1419 1418 1418 1418 1417 1417 1416 1416 1416 1416 1416 1415 1415 1415 1415 1414 1414 1413 1413 1413 1413 1413 1413 1414 1414 1414 1414 1414
1438 1437 1437 1436 1436 1435 1434 1433 1432 1432 1431 1430 1430 1430 1430 1429 1428 1428 1427 1427 1426 1425 1424 1423 1423 1422 1422 1421 1421 1420 1420 1419 1419 1419 1419 1419 1419 1418 1418 1418 1417 1417 1417 1417 1418 1418 1418 1418 1418 1418 1418 1418 1418 1418 1418 1417 1417 1417 1417 1416 1416 1416 1416 1415 1415 1414 1414 1414 1414 1414 1413 1413 1413 1413 1413 1412 1411 1411 1411 1411 1411 1411 1411 1411 1412 1412 1412
1437 1437 1436 1436 1435 1434 1433 1433 1432 1432 1431 1431 1430 1430 1430 1429 1429 1428 1427 1427 1426 1425 1424 1424 1423 1422 1422 1421 1420 1420 1419 1419 1419 1418 1418 1418 1418 1417 1417 1417 1416 1416 1416 1416 1416 1416 1416 1416 1416 1416 1415 1415 1415 1415 1415 1415 1415 1414 1414 1414 1414 1414 1414 1413 1413 1413 1412 1412 1412 1412 1411 1411 1411 1411 1410 1410 1410 1409 1409 1409 1409 1409 1409 1409 1409 1410 1410